GFSNIL_850_spd_000.txt.gz
Wind_Speed
12 16 19 21 24 27 27 26 24 22 20 22 23 27 14 14 18 16 17 16 17 15
20 23 25 28 31 32 31 26 21 16 17 21 22 8 12 16 15 15 15 17 18 20
26 28 30 33 33 31 27 19 16 13 21 19 22 15 11 12 14 16 17 18 20 21
26 30 30 32 32 29 19 15 18 22 25 16 15 9 11 14 16 19 20 24 23 21
26 29 31 32 29 24 16 15 16 18 23 19 9 9 13 17 18 22 23 23 22 26
27 30 31 31 28 22 13 13 20 21 14 6 8 13 15 19 22 24 25 26 29 33
26 30 32 30 26 21 17 18 13 11 9 9 13 15 19 23 24 24 25 29 32 32
27 31 30 28 26 20 16 13 12 10 10 13 17 17 21 23 24 26 31 32 31 30
28 28 28 29 23 14 10 12 12 11 13 18 19 19 20 24 27 30 33 31 31 31
27 26 29 24 18 13 11 13 15 16 19 20 15 20 24 25 29 30 28 28 29 28
23 27 28 22 16 15 14 17 17 17 14 12 20 23 24 28 27 26 26 24 21 22
22 27 25 20 16 16 17 18 16 13 13 22 18 22 26 25 24 24 23 20 19 19
23 25 23 17 15 13 16 15 15 15 15 15 19 22 22 21 22 23 22 19 19 17
23 24 20 17 15 16 17 14 12 13 13 17 20 20 19 19 20 20 22 20 20 18

GFSNIL_850_spd_003.txt.gz
Wind_Speed
11 16 20 24 26 27 27 27 25 22 18 17 15 15 22 15 16 12 13 14 14 15
18 23 26 28 29 29 27 25 21 16 14 17 15 24 15 11 10 13 15 18 17 20
22 26 28 29 29 29 27 22 16 13 12 15 24 17 8 8 10 14 17 19 20 21
23 26 26 28 27 25 21 15 12 12 15 19 21 11 10 9 12 15 19 21 20 20
22 22 26 27 26 23 20 13 10 13 19 22 17 8 11 11 13 19 20 20 20 18
18 22 27 28 26 24 22 18 15 20 18 11 8 11 14 14 17 23 20 21 25 27
18 23 28 27 27 25 21 18 14 13 12 12 11 14 15 16 22 24 23 26 30 32
19 24 28 26 27 23 17 13 12 13 11 11 14 16 19 19 23 25 28 31 31 28
21 26 26 27 26 20 14 12 13 15 16 17 18 21 15 22 24 28 32 30 29 28
23 26 24 26 24 19 16 15 17 18 16 19 15 14 23 22 27 30 28 27 26 22
24 24 24 24 21 18 16 17 18 20 17 17 17 22 21 26 27 25 24 24 21 19
23 23 22 23 19 17 15 15 16 16 17 15 17 19 24 25 23 22 22 20 17 18
22 22 22 23 20 17 16 18 18 16 15 16 16 21 24 22 21 20 20 18 18 18
24 25 25 25 20 18 17 17 16 14 15 16 20 22 21 19 18 18 18 18 18 16

GFSNIL_850_spd_006.txt.gz
Wind_Speed
8 10 11 16 19 16 17 18 20 18 12 8 7 7 11 13 13 12 11 12 14 17
9 15 18 19 19 18 18 18 17 14 7 7 7 13 12 14 12 10 12 15 17 18
10 15 19 21 20 20 20 18 15 11 9 10 11 14 17 13 11 11 13 16 18 19
11 17 20 18 19 19 20 16 13 11 13 14 18 19 16 11 13 13 15 18 20 20
15 18 16 15 17 18 18 16 13 12 15 18 20 16 10 12 14 17 19 20 20 21
14 15 12 15 17 17 16 15 13 13 14 14 12 11 12 14 15 16 17 19 20 23
14 13 14 16 16 17 16 14 12 12 13 12 11 11 12 12 13 14 17 19 21 23
15 14 13 15 17 19 16 13 13 11 11 11 11 15 16 20 14 17 18 19 19 18
15 16 15 15 17 17 15 14 14 15 13 11 10 19 18 14 17 16 18 18 18 17
18 16 15 16 16 17 15 14 15 16 13 13 9 16 16 19 19 20 16 16 16 16
14 15 16 16 16 16 15 15 14 13 12 10 12 16 18 18 22 18 15 15 15 14
14 15 17 17 17 17 16 14 14 13 10 11 11 17 18 21 23 19 17 14 12 15
13 15 17 18 18 18 17 15 12 13 16 16 15 17 20 22 20 17 15 12 12 16
15 17 18 18 18 18 16 14 16 16 16 15 15 19 21 20 18 16 15 13 13 12

GFSNIL_850_spd_009.txt.gz
Wind_Speed
1 4 3 7 8 9 11 13 15 15 15 12 11 13 12 15 13 13 14 12 14 14
3 5 5 5 8 9 11 13 13 13 13 12 12 13 14 15 16 17 13 12 15 15
3 1 3 6 9 10 11 12 13 13 12 14 13 17 17 19 17 14 12 15 15 17
5 4 5 6 8 10 12 12 13 13 13 13 16 18 19 19 17 15 14 15 16 18
7 6 7 8 9 11 12 13 13 13 13 15 17 17 16 14 14 16 16 17 18 20
9 8 9 9 10 11 12 13 12 12 14 15 15 14 14 14 15 15 14 15 17 19
11 10 11 11 11 12 13 13 12 12 14 14 13 13 13 14 15 16 19 17 20 22
11 11 12 13 13 13 13 12 12 13 14 12 12 12 13 15 15 14 17 19 20 19
11 12 14 14 14 14 14 13 13 14 15 14 13 16 14 14 15 14 16 19 18 17
11 12 14 14 16 15 15 14 14 14 14 13 14 16 15 15 17 14 17 16 15 15
12 13 15 16 17 17 17 16 15 14 14 12 15 17 19 16 17 14 15 14 13 13
12 14 16 17 17 18 17 17 17 15 13 12 15 20 18 17 18 14 13 12 12 13
13 15 16 17 18 18 18 18 17 15 12 12 14 21 17 16 19 15 12 11 11 14
13 16 17 18 17 18 18 17 14 15 13 11 14 14 17 18 17 14 14 11 10 10

GFSNIL_850_spd_012.txt.gz
Wind_Speed
6 6 8 10 11 9 10 11 14 14 13 10 13 15 18 15 14 14 15 16 9 15
6 7 9 8 8 8 11 11 11 14 10 9 16 16 17 17 15 19 17 16 15 14
8 7 7 7 8 10 11 12 11 12 12 12 11 13 15 17 17 18 18 14 13 13
8 10 8 7 9 10 12 11 12 12 13 13 12 14 17 18 19 18 17 12 16 19
14 10 9 8 9 11 13 11 13 14 13 12 14 16 17 15 15 16 15 20 14 14
15 12 10 11 11 12 11 14 13 13 12 13 14 18 12 12 13 15 13 13 18 22
15 12 10 12 14 13 13 14 13 13 13 15 15 13 12 12 12 14 14 17 15 18
15 14 14 12 15 15 15 17 13 14 15 17 19 14 15 15 17 18 15 14 16 18
12 11 10 15 20 17 16 14 15 15 16 17 15 17 20 17 17 15 15 15 19 21
12 10 19 15 15 15 17 18 18 17 16 18 18 21 20 16 16 18 14 17 18 19
11 12 11 15 16 17 18 18 19 19 18 17 19 18 19 18 21 19 15 19 19 15
9 10 18 16 15 17 20 20 20 19 19 17 16 16 20 21 21 18 18 18 15 13
13 15 16 18 18 18 19 19 19 19 19 17 17 19 23 23 20 20 18 15 13 13
10 18 16 19 19 20 20 18 18 23 21 21 22 22 21 18 17 20 17 15 13 10

GFSNIL_850_spd_015.txt.gz
Wind_Speed
24 19 14 10 11 12 10 11 12 13 13 11 10 15 18 21 16 17 16 20 19 16
22 16 11 10 9 8 9 11 13 14 12 10 10 10 14 13 16 14 18 18 14 12
16 13 11 10 8 9 13 11 13 13 13 14 11 12 11 11 10 14 17 13 11 16
15 12 10 8 11 10 12 12 13 13 14 14 10 8 14 17 18 14 11 14 16 15
15 13 11 10 11 14 13 15 14 15 14 12 9 14 17 20 16 14 16 17 21 16
18 16 12 11 15 14 17 18 17 18 14 8 13 18 19 12 13 14 16 15 17 21
18 16 15 16 14 15 19 19 19 18 12 11 17 19 20 19 17 18 15 18 15 17
13 14 17 15 12 16 21 20 21 16 14 15 18 18 20 17 18 22 22 18 17 19
15 23 16 13 10 13 15 20 19 19 20 19 19 21 21 20 19 19 18 18 18 20
23 21 17 13 14 14 16 18 21 23 24 21 21 22 21 20 20 19 20 20 20 21
22 18 13 11 12 13 18 22 20 24 21 22 22 21 20 18 18 20 21 20 21 22
15 12 8 4 13 17 26 20 20 20 19 22 22 20 19 19 20 20 20 21 23 19
8 4 4 9 21 22 20 23 24 23 22 22 22 21 20 20 20 19 19 22 19 17
5 6 7 16 21 22 24 26 25 16 21 22 24 20 18 18 16 16 18 21 17 18

GFSNIL_850_spd_018.txt.gz
Wind_Speed
30 27 23 19 17 14 11 9 8 12 14 13 12 12 12 14 17 16 19 17 18 15
27 25 22 20 16 11 7 9 14 13 14 14 13 13 14 12 13 15 15 16 18 18
26 24 21 16 11 8 10 10 11 13 14 14 13 13 12 14 16 17 18 21 14 16
27 25 21 17 14 13 8 12 13 14 15 16 14 13 11 14 18 22 20 17 16 15
27 25 23 19 16 10 9 11 12 15 16 15 14 13 13 16 20 16 17 18 18 21
28 26 25 20 17 11 11 10 14 16 16 12 11 13 16 19 23 18 19 18 16 18
30 27 23 20 16 14 11 9 13 16 17 14 11 15 20 22 20 19 20 21 22 25
29 23 19 17 17 17 8 8 11 18 16 18 17 18 21 22 22 20 19 21 22 21
26 21 24 25 24 15 10 2 11 16 18 20 24 23 21 22 23 21 20 21 20 21
28 29 31 28 23 17 12 16 14 21 23 21 24 25 24 22 21 19 19 23 21 21
30 32 29 22 13 7 17 12 20 26 25 24 22 22 22 21 21 25 22 21 21 20
34 29 21 13 9 14 11 20 24 21 23 24 23 19 19 19 22 23 21 20 18 20
15 7 4 13 19 11 17 21 22 24 25 27 24 17 18 21 20 21 20 18 18 20
9 9 18 17 6 16 19 21 23 25 23 19 16 15 17 19 19 19 18 16 18 20

GFSNIL_850_spd_021.txt.gz
Wind_Speed
37 39 36 33 28 24 21 17 12 9 15 21 13 11 12 13 13 12 14 15 15 16
34 38 38 33 29 26 22 16 13 17 20 11 12 12 12 13 13 13 14 15 17 18
33 33 36 34 33 27 22 20 16 8 7 13 11 12 20 12 11 12 16 20 18 14
36 34 35 32 28 24 20 15 7 8 10 8 12 16 12 11 12 15 20 17 15 15
33 31 33 31 29 27 21 15 11 9 7 10 9 12 11 11 11 14 17 17 19 19
30 31 33 30 30 26 21 15 12 8 7 8 15 12 10 11 14 17 18 17 19 21
32 30 30 30 28 25 22 15 12 6 7 12 12 13 15 15 18 20 21 21 19 20
30 30 31 28 26 20 18 13 8 6 14 12 16 17 19 21 21 22 23 21 20 20
33 31 30 27 22 22 16 13 9 9 14 18 20 21 20 24 24 22 23 23 23 25
35 32 29 28 28 23 18 14 10 22 14 20 23 22 21 21 24 25 23 24 25 22
30 30 31 30 26 21 15 13 24 19 21 24 24 21 21 21 22 23 24 23 25 21
30 28 23 13 9 11 16 25 21 20 22 23 24 24 22 20 19 22 22 23 25 20
23 23 23 22 16 20 27 23 20 21 23 26 26 24 17 14 17 21 22 24 23 21
15 19 17 20 26 27 15 18 22 24 23 23 22 19 17 16 17 19 22 23 23 20

GFSNIL_850_spd_024.txt.gz
Wind_Speed
37 36 35 34 32 32 33 30 27 22 24 21 24 29 20 17 12 15 14 12 13 14
37 40 40 39 36 32 33 31 24 23 19 21 22 21 12 10 13 12 10 9 12 15
36 34 39 40 39 36 35 30 22 20 19 16 13 8 10 10 12 10 9 10 12 10
32 36 38 38 35 37 34 27 26 21 17 10 8 9 5 17 13 10 9 10 11 11
34 35 32 31 33 35 31 28 23 16 12 9 9 5 17 13 11 11 10 11 13 14
36 34 34 33 34 34 31 26 20 15 11 12 7 16 11 11 12 12 14 17 18 17
33 36 32 32 35 33 29 22 16 14 13 11 11 11 13 15 15 16 18 19 21 20
34 31 30 33 33 31 26 22 18 19 17 10 17 13 17 20 23 25 25 23 22 23
30 32 31 32 32 26 24 23 21 18 15 16 20 15 19 23 25 25 28 28 24 23
30 33 32 31 30 28 27 24 21 16 16 21 16 17 23 24 26 26 25 26 27 24
25 22 24 25 24 23 25 29 27 21 21 24 20 23 24 24 25 26 25 26 26 25
15 17 19 20 23 21 19 21 26 25 27 23 20 25 27 27 25 25 24 23 25 25
11 17 20 18 15 19 23 27 30 32 18 21 27 25 24 23 21 22 20 21 24 24
10 11 14 18 20 23 26 22 16 19 24 27 25 25 24 23 23 23 22 22 23 24

GFSNIL_850_spd_027.txt.gz
Wind_Speed
36 36 37 37 37 35 33 29 30 30 27 22 16 16 15 15 18 11 16 14 12 12
36 38 36 35 37 37 35 32 32 31 27 18 26 16 12 13 10 14 15 12 11 12
34 36 31 32 35 39 38 33 34 31 23 25 17 12 15 11 9 18 14 13 13 11
34 30 29 30 35 38 37 35 34 30 27 19 15 16 11 9 15 15 14 14 12 9
31 33 30 30 32 30 30 34 33 31 26 23 17 14 11 11 13 14 16 14 14 12
31 30 29 28 27 28 29 31 31 28 24 20 16 12 8 15 14 17 16 16 17 17
28 29 29 23 21 24 28 30 28 24 19 15 13 9 11 21 11 17 18 18 21 21
20 21 20 20 22 25 27 27 25 23 22 21 16 16 23 14 18 22 25 27 29 29
13 15 17 20 23 25 24 25 25 28 27 27 23 18 21 16 23 25 27 29 29 30
11 12 15 19 22 21 22 27 27 25 27 27 26 27 23 22 23 30 28 28 30 30
7 8 12 15 16 17 22 23 26 31 32 31 31 31 28 17 28 31 32 32 31 30
2 2 4 7 9 14 23 26 28 28 30 33 34 29 18 26 30 29 30 28 28 29
6 3 2 2 6 11 14 17 21 25 27 26 20 22 26 26 27 29 29 28 26 26
7 3 1 4 9 12 15 16 15 17 20 23 25 28 26 26 28 30 30 30 28 27

GFSNIL_850_spd_030.txt.gz
Wind_Speed
36 36 35 36 37 35 34 35 34 35 25 32 30 22 16 23 20 13 10 12 13 11
35 36 40 35 36 32 32 35 39 36 31 33 26 20 19 23 15 14 10 12 12 11
31 32 30 26 32 33 34 35 37 37 31 31 27 22 25 16 15 11 11 13 13 12
26 31 27 29 35 35 33 34 35 37 36 33 26 26 22 17 13 12 13 14 16 15
24 26 28 28 30 30 31 31 32 34 33 25 26 22 18 14 13 12 19 17 18 17
19 23 25 26 28 26 25 27 31 32 28 29 26 23 19 21 18 22 17 17 19 21
14 16 17 19 20 20 20 22 25 27 27 27 24 22 22 23 25 21 16 20 21 22
8 9 10 11 12 15 15 17 17 20 24 23 24 25 22 21 21 20 18 21 23 26
6 5 6 7 8 10 11 13 14 21 24 27 27 28 29 26 24 21 21 24 23 25
2 2 3 4 5 8 10 13 18 23 25 25 30 34 29 29 29 32 24 23 24 26
3 2 1 2 3 4 6 10 14 20 23 28 33 30 31 33 34 23 23 25 27 28
9 9 10 10 9 6 1 7 13 17 21 23 22 26 30 27 22 25 28 25 25 26
13 12 10 7 4 2 2 5 9 13 16 21 23 18 20 23 26 27 27 28 27 28
11 8 6 1 3 5 7 9 10 11 13 16 18 20 21 22 24 25 27 28 30 28

GFSNIL_850_spd_033.txt.gz
Wind_Speed
30 30 30 31 31 33 31 28 28 31 36 38 35 32 30 23 23 22 27 14 12 13
34 34 29 32 34 34 31 26 29 35 36 38 34 33 27 23 22 25 15 13 13 15
27 25 29 32 34 33 35 32 33 34 32 35 37 34 27 26 25 16 19 14 15 16
26 27 29 34 31 28 31 32 31 32 32 35 38 35 28 23 17 21 16 17 16 17
23 28 30 30 25 27 28 24 26 28 32 31 33 26 24 21 21 15 16 17 22 20
21 24 26 22 18 20 22 23 25 27 27 28 26 22 21 16 15 21 16 24 18 18
12 12 13 14 17 17 18 20 23 23 22 20 22 23 17 22 24 19 30 18 18 20
7 8 7 7 7 7 10 11 11 11 12 16 21 18 26 24 18 25 24 18 19 22
7 6 6 7 10 11 11 11 10 8 10 15 22 24 26 25 22 28 25 25 25 25
6 5 4 5 4 4 3 3 5 5 10 15 18 19 24 25 27 32 29 34 34 24
7 6 7 6 5 4 4 3 2 6 11 11 12 17 18 24 27 28 30 23 21 25
11 12 11 12 10 9 8 7 6 5 6 9 13 18 19 21 25 19 21 23 24 25
13 13 11 10 10 9 6 5 2 4 7 10 13 12 14 21 21 23 23 24 25 26
12 11 8 5 4 3 1 2 2 3 3 5 7 8 16 21 23 26 31 34 36 33

GFSNIL_850_spd_036.txt.gz
Wind_Speed
32 33 25 29 31 28 35 31 26 26 27 26 33 33 32 33 32 31 31 28 23 20
38 33 28 36 35 35 37 34 28 26 30 33 34 31 31 33 35 31 26 20 17 15
38 39 21 27 35 37 38 32 30 30 31 34 32 28 30 33 33 28 21 14 16 21
42 44 30 26 37 35 32 29 28 28 30 30 27 28 31 33 28 23 17 20 22 22
28 31 25 27 29 31 28 22 22 23 26 27 27 28 30 28 25 21 22 21 23 18
24 27 23 24 27 26 25 19 18 19 24 26 24 22 22 24 21 20 20 25 17 23
22 17 15 18 20 18 17 17 19 21 24 24 22 18 21 20 16 22 23 22 21 17
16 13 12 12 13 14 15 17 17 19 22 21 17 17 18 19 20 23 23 26 20 17
10 9 7 8 10 9 9 9 7 9 9 11 12 10 13 15 17 21 20 22 25 26
16 16 15 15 13 13 12 8 6 5 5 7 8 9 10 14 18 19 22 26 29 28
13 11 11 11 11 9 8 8 7 7 7 7 8 9 11 12 14 19 23 24 18 20
13 13 11 10 10 9 8 7 6 5 6 7 9 9 11 15 16 19 18 19 20 22
14 14 16 14 12 9 10 11 11 9 7 4 7 8 10 13 18 22 24 25 27 28
19 15 12 12 11 10 8 8 7 6 5 3 7 10 12 16 21 23 25 27 30 32